Location: Walnut Point State Park
(39.6958°N, 88.0345°W)
Time: 18:16:49
(UTC-05:00)

Cosmos 1833 Rocket - Visible Passes

Search period start: 05 July 2015 00:00
Search period end: 15 July 2015 00:00
Orbit: 831 x 841 km, 71.0° (Epoch: 04 July)

Date Brightness Start Highest point End Pass type
(mag) Time Alt. Az. Time Alt. Az. Time Alt. Az.
05 Jul 5.5 22:25:40 10° W 22:29:39 19° NW 22:33:29 10° N visible
06 Jul 5.4 22:08:46 10° W 22:12:56 20° NW 22:16:59 10° N visible
07 Jul 5.4 21:51:53 10° WSW 21:56:14 22° NW 22:00:28 10° N visible
08 Jul 5.3 21:35:01 10° WSW 21:39:31 23° NW 21:43:56 10° N visible
09 Jul 5.6 04:44:35 10° N 04:48:54 22° NE 04:53:19 10° ESE visible
09 Jul 5.3 21:18:10 10° WSW 21:22:50 25° NW 21:27:23 10° N visible
10 Jul 5.6 04:28:04 10° N 04:32:11 21° NE 04:36:27 10° E visible
10 Jul 5.2 21:01:21 10° WSW 21:06:08 27° NW 21:10:51 10° N visible
11 Jul 5.7 04:11:33 10° N 04:15:29 19° NE 04:19:33 10° E visible
11 Jul 5.1 20:44:32 10° WSW 20:49:27 29° NW 20:54:17 10° N visible
12 Jul 5.7 03:55:04 10° N 03:58:46 18° NE 04:02:38 10° E visible
13 Jul 5.7 03:38:34 10° N 03:42:03 17° NE 03:45:43 10° E visible
14 Jul 5.7 03:22:07 10° NNE 03:25:20 16° NE 03:28:45 10° E visible
